Current weather by "City, St" or "zip code"  
 

Current Conditions: Cherry Capital Airport, MI

Overcast


40.0 F

Last Updated on Oct 23 2020, 9:53 pm EDT
Humidity: 77%
Wind Speed: NW 12.7 G 26.5 mph
Barometer 30.07 in
Dewpoint: 33.1 F
Visibility: 10.00 mi
Precip: Trace
Heat Index: NA
Wind Chill: 33 F
Current conditions at:

Cherry Capital Airport, MI (KTVC)

Lat: 44.73898 Lon: 85.56788

Local Radar Image active severe weather and emergency alerts image image weather storm and storm spotter reports image weather observation monitoring service image
Local
Radar
Active
Alerts
Storm Reports Obs
Monitoring

Sign-up For Email & Text Message Weather Alert Notification Services



Advertise Here

Observation History for Cherry Capital Airport, MI


Time Wind
(mph)
Vis
(mi)
Weather Precip (in) Temperature (F) Relative
Humidity
Wind
Chill
(F)
Heat
Index
(F)
Pressure
Air Dwpt altimeter
(in)
sea level
(mb)
Rmks
9:53 pm EDT NW 12.7 G 26.5 10.00 Overcast Trace 40.0 33.1 77% 33 NA 30.07 1018.6
8:53 pm EDT N 13.8 G 24.2 10.00 Overcast Trace 41.0 33.1 73% 33 NA 30.04 1017.6
7:53 pm EDT NW 17.3 G 27.6 7.00 Light Rain Trace 41.0 36.0 82% 32 NA 29.99 1015.9
6:53 pm EDT N 15.0 G 29.9 2.50 Light Rain 00.01 42.0 37.0 82% 34 NA 29.95 1014.7
5:53 pm EDT NW 12.7 G 25.3 2.50 Light Rain Fog/Mist Trace 43.0 39.9 89% 36 NA 29.92 1013.6
4:53 pm EDT NW 13.8 2.50 Overcast 00.02 45.0 41.0 86% 39 NA 29.89 1012.3
3:53 pm EDT NW 11.5 2.50 Light Rain Fog/Mist 00.05 45.0 42.1 90% 39 NA 29.85 1011.2
2:53 pm EDT N 5.8 5.00 Light Rain Fog/Mist 00.03 45.0 42.1 90% 42 NA 29.81 1009.8
1:53 pm EDT N 6.9 6.00 Light Rain Fog/Mist 00.01 45.0 42.1 90% 41 NA 29.83 1010.4
12:53 pm EDT N 8.1 8.00 Light Rain 00.01 45.0 41.0 86% 41 NA 29.84 1010.7
11:53 am EDT N 8.1 G 20.7 3.00 Light Rain Fog/Mist 00.01 46.0 42.1 86% 42 NA 29.82 1010.2
10:53 am EDT N 10.4 G 19.6 3.00 Light Rain Fog/Mist Trace 46.0 43.0 89% 41 NA 29.84 1010.7
9:53 am EDT N 9.2 3.00 Light Rain Fog/Mist 00.01 47.0 44.1 90% 43 NA 29.84 1010.8
8:53 am EDT NW 8.1 3.00 Light Rain Fog/Mist 00.03 49.0 46.0 90% 46 NA 29.83 1010.4
7:53 am EDT N 3.5 3.00 Rain Fog/Mist 00.07 49.0 46.9 93% NA NA 29.82 1009.9
6:53 am EDT NW 8.1 3.00 Light Rain Fog/Mist 00.05 49.0 46.9 93% 46 NA 29.83 1010.3
5:53 am EDT N 0.0 10.00 Overcast 00.03 48.0 46.0 93% NA NA 29.78 1008.8
4:53 am EDT N 0.0 3.00 Rain Fog/Mist 00.15 49.0 46.0 90% NA NA 29.84 1010.7
3:53 am EDT N 0.0 6.00 Light Rain Fog/Mist 00.09 48.0 45.0 89% NA NA 29.82 1010.2
2:53 am EDT W 3.5 6.00 Light Rain Fog/Mist 00.34 48.0 45.0 89% NA NA 29.85 1011.0
1:53 am EDT N 0.0 8.00 Light Rain 00.25 48.0 45.0 89% NA NA 29.85 1011.0
12:53 am EDT N 10.4 10.00 Thunderstorm in Vicinity Light Rain 00.59 48.0 45.0 89% 43 NA 29.86 1011.5
11:53 pm EDT SE 9.2 G 21.9 2.00 Thunderstorm in Vicinity Heavy Rain Fog/Mist -- 47.0 44.1 90% 43 NA 29.89 1012.5
10:53 pm EDT NE 8.1 3.00 Thunderstorm Light Rain Fog/Mist 00.43 47.0 44.1 90% 43 NA 29.89 1012.4

Regional Weather Observation


Bellaire, Antrim County Airport, MI (KACB)

Unknown Precip
38.0 F

Charlevoix, Charlevoix Municipal Airport, MI (KCVX)

Light Rain
37.0 F

Frankfort, Frankfort Dow Memorial Field Airport, MI (KFKS)

Rain
39.0 F

Wexford County Airport, MI (KCAD)

Light Rain
36.0 F

Beaver Island, Beaver Island Airport, MI (KSJX)

Overcast
37.0 F

Manistee County - Blacker Airport, MI (KMBL)

Light Rain
40.0 F